FENGYUN 1C DEB, 29754

Orbit data source: Space-Track

FENGYUN 1C DEB, 29754 is space debris in SSO originally from a launch on Mon, 10 May 1999 UTC launched from the Taiyaun Space Center, China (TSC). Fengyun 1C debris stems from the Chinese weather satellite Fengyun-1C, which was intentionally destroyed by a Chinese anti-satellite missile in 2007. This event dramatically increased the amount of space debris, with thousands of trackable fragments posing hazards to satellites and human spaceflight. The Fengyun 1C debris cloud has become a focal point in discussions about space sustainability and the need for international regulations to prevent the creation of new debris.

Loading next visibility...
Identifier
29754, 1999-025AU
Orbit
SSO
Country
Flag of CNCN / PRC
Related business
Manufacturer
Unknown
Mission
Spacecraft
Bus & Motor
Unknown
Mass
Unknown
Launch date (UTC)
1999-05-10 (27 years ago)
Launch vehicle
Unknown
Launch site
Taiyaun Space Center, China (TSC)
Object type
Payload
Rocket body
Debris
Shape & HBR
Unknown shape, 0.1 m
Radar Cross Section
Medium (>0.1 m² and <1 m²)

Expand to show TLE details & history
Last TLE update: 1 day ago

TLE from 1 day ago
0 FENGYUN 1C DEB
1 29754U 99025AU  26207.25592502  .00001589  00000-0  76523-3 0  9998
2 29754  98.8921 315.7483 0033830 315.3632  74.0447 14.19920685  5407
Epoch: 2026-07-26T06:08Z
TLE epoch observation values (Epoch: 2026-07-26T06:08:31.921Z)
Latitude
29.43731°
Longitude
-85.37962°
Altitude
822.65 km
Speed
7.448 km/s
True Right ascension
20h 42m 50s
True Declination
29° 17' 30"
Sunlit
Object was in full shadow at epoch
Visualization orbit readout
Latitude
Unknown
Longitude
Unknown
Altitude
Unknown
Speed
Unknown
Apparent Right ascension
Unknown
Apparent Declination
Unknown
Sunlit
N/A
Visualization observer readout
Local Sidereal Time
00:01:30
Azimuth
Unknown
Elevation
Unknown
Doppler factor
Unknown
Orbital elements
Apogee altitude
847.149 km
Perigee altitude
798.428 km
Semi-major axis
7,200.926 km
Eccentricity
0.00338
Inclination
98.8921°
RAAN
315.7483°
Arg. of periapsis
315.3632°
True anomaly
74.41786°
Mean anomaly
74.0447°
Eccentric anomaly
74.23124°
Mean motion
3.5519 °/min
Orbital period
101.35 mins
BSTAR
0.00076523
Loading maneuver chart data...
Computing Atmospheric mass density...
Loading historical data...
Loading historical data...
Loading historical data...
Loading historical data...
Loading historical data...
Loading historical data...
Loading historical data...

Documentation

Showing up to 5 results
|